Location: Goettingen
(51.5300°N, 9.9433°E)
Time: 23:04:19
(UTC+02:00)

ISS - Pass Details

Date: 27 October 2020
Orbit: 418 x 420 km, 51.6° (Epoch: 20 October)

Event Time Altitude Azimuth Distance (km) Brightness Sun altitude
Exits shadow 04:21:43 16° 132° (SE) 1,186 -1.1 -25.9°
Drops below altitude 10° 04:23:28 10° 101° (E) 1,497 -0.1 -25.6°
Sets 04:26:06 0° 79° (E) 2,365 1.4 -25.2°
